Burnet, TX

10:04 AM CDT on April 22, 2018 (GMT -0500)
Burnet Municipal-Craddock

Weather History for KBMQ - March, 2013

Change the Weather History Date:

Friday, March 8, 2013

  Actual Average Record
Temperature  
Mean Temperature 59 °F -  
Max Temperature 63 °F 63 °F 82 °F (2009)
Min Temperature 55 °F 44 °F 30 °F (2008)
Degree Days  
Heating Degree Days 6    
Growing Degree Days 9 (Base 50)    
Moisture  
Dew Point 56 °F    
Average Humidity 90    
Maximum Humidity 97    
Minimum Humidity 75    
Precipitation  
Precipitation 0.00 in - - ()
Sea Level Pressure  
Sea Level Pressure 30.09 in    
Wind  
Wind Speed 8 mph (SE)    
Max Wind Speed 16 mph    
Max Gust Speed 26 mph    
Visibility 5 miles    
Events Rain    
Averages and records for this station are not official NWS values.
T = Trace of Precipitation, MM = Missing Value Source: NWS Daily Summary

Daily Weather History Graph

Daily Weather History Graph

Search for Another Location

Airport or City:

Astronomy

Mar. 08, 2013 Rise Set
Actual Time 6:50 AM CST 6:36 PM CST
Civil Twilight 6:26 AM CST 7:00 PM CST
Nautical Twilight 5:59 AM CST 7:28 PM CST
Astronomical Twilight 5:31 AM CST 7:56 PM CST
Moon 4:25 AM CST (3/8) 3:42 PM CST (3/8)
Length of Visible Light 12h 33m
Length of Day
11h 45m
Waning Crescent, 11% of the Moon is Illuminated
Mar 8
Waning Crescent
Mar 11
New
Mar 19
First Quarter
Mar 27
Full
Apr 2
Last Quarter

Hourly Weather History & Observations

Time (CST) Temp. Dew Point Humidity Pressure Visibility Wind Dir Wind Speed Gust Speed Precip Events Conditions
12:53 AM 59.0 °F 51.1 °F 75% 30.11 in 10.0 mi South 12.7 mph 19.6 mph N/A   Overcast
1:53 AM 59.0 °F 51.1 °F 75% 30.09 in 10.0 mi SSE 9.2 mph - N/A   Overcast
2:36 AM 57.9 °F 51.1 °F 78% 30.11 in 10.0 mi SSE 9.2 mph - N/A   Overcast
2:53 AM 57.9 °F 52.0 °F 81% 30.08 in 10.0 mi SSE 8.1 mph 19.6 mph N/A   Overcast
3:53 AM 57.9 °F 52.0 °F 81% 30.08 in 10.0 mi South 9.2 mph 16.1 mph N/A   Overcast
4:53 AM 57.9 °F 52.0 °F 81% 30.07 in 10.0 mi SE 8.1 mph - N/A   Overcast
5:16 AM 57.0 °F 52.0 °F 83% 30.11 in 10.0 mi SSE 8.1 mph - N/A   Overcast
6:22 AM 55.9 °F 54.0 °F 93% 30.11 in 5.0 mi SE 5.8 mph - N/A   Overcast
6:53 AM 55.9 °F 54.0 °F 93% 30.08 in 4.0 mi SSE 6.9 mph - 0.00 in   Overcast
7:13 AM 55.9 °F 54.0 °F 93% 30.11 in 3.0 mi Variable 4.6 mph - N/A   Overcast
7:26 AM 55.9 °F 54.0 °F 93% 30.12 in 1.8 mi SSE 8.1 mph - N/A   Overcast
7:43 AM 55.9 °F 55.0 °F 97% 30.12 in 1.2 mi SSE 5.8 mph - N/A   Overcast
7:53 AM 55.9 °F 55.0 °F 97% 30.10 in 1.2 mi SE 6.9 mph - N/A   Overcast
8:04 AM 55.9 °F 55.0 °F 97% 30.13 in 1.5 mi SE 6.9 mph - N/A   Overcast
8:21 AM 55.9 °F 55.0 °F 97% 30.14 in 2.5 mi Variable 5.8 mph - N/A   Overcast
8:53 AM 57.0 °F 55.0 °F 93% 30.14 in 1.5 mi SSE 5.8 mph - 0.00 in Rain Light Rain
9:19 AM 57.0 °F 55.0 °F 93% 30.17 in 3.0 mi Calm Calm - 0.00 in   Overcast
9:53 AM 57.0 °F 55.0 °F 93% 30.15 in 3.0 mi ESE 6.9 mph - 0.00 in   Overcast
10:02 AM 57.0 °F 55.0 °F 93% 30.17 in 2.0 mi SE 3.5 mph - N/A   Overcast
10:08 AM 57.0 °F 55.9 °F 96% 30.17 in 1.2 mi SE 5.8 mph - N/A   Overcast
10:22 AM 57.9 °F 55.9 °F 93% 30.16 in 1.8 mi SE 6.9 mph - N/A   Overcast
10:33 AM 57.9 °F 55.9 °F 93% 30.15 in 3.0 mi Variable 6.9 mph - N/A   Overcast
10:53 AM 59.0 °F 57.0 °F 93% 30.12 in 5.0 mi ESE 8.1 mph - N/A   Overcast
11:27 AM 60.1 °F 57.0 °F 90% 30.15 in 6.0 mi SSE 6.9 mph - N/A   Overcast
11:48 AM 60.8 °F 57.2 °F 88% 30.16 in 2.5 mi Variable 6.9 mph - N/A   Overcast
11:49 AM 60.1 °F 57.9 °F 93% 30.14 in 2.5 mi Variable 6.9 mph - N/A   Overcast
12:03 PM 60.1 °F 57.9 °F 93% 30.15 in 1.2 mi SE 11.5 mph 16.1 mph N/A   Overcast
12:32 PM 59.0 °F 57.9 °F 96% 30.13 in 1.8 mi SE 9.2 mph - 0.00 in Rain Light Rain
12:39 PM 60.1 °F 57.9 °F 93% 30.12 in 2.0 mi SSE 8.1 mph - 0.00 in   Overcast
12:53 PM 60.1 °F 57.9 °F 93% 30.09 in 2.0 mi SE 5.8 mph - 0.00 in   Overcast
1:16 PM 60.1 °F 57.9 °F 93% 30.10 in 1.5 mi SE 6.9 mph - N/A   Overcast
1:26 PM 60.1 °F 57.9 °F 93% 30.10 in 3.0 mi SSE 5.8 mph - N/A   Overcast
1:53 PM 60.1 °F 57.9 °F 93% 30.07 in 6.0 mi SSE 9.2 mph - 0.00 in Rain Light Rain
2:31 PM 61.0 °F 57.9 °F 90% 30.09 in 8.0 mi SSE 9.2 mph - 0.00 in Rain Light Rain
2:49 PM 60.8 °F 59.0 °F 94% 30.08 in 2.5 mi SE 5.8 mph - 0.00 in Rain Light Rain
2:53 PM 61.0 °F 59.0 °F 93% 30.05 in 3.0 mi SE 8.1 mph - 0.00 in Rain Light Rain
3:53 PM 61.0 °F 59.0 °F 93% 30.03 in 2.5 mi SE 9.2 mph - 0.00 in Rain Light Rain
4:18 PM 61.0 °F 59.0 °F 93% 30.05 in 7.0 mi SE 6.9 mph - 0.00 in   Overcast
4:53 PM 62.1 °F 60.1 °F 93% 30.02 in 4.0 mi SSE 8.1 mph - 0.00 in Rain Light Rain
5:35 PM 63.0 °F 60.1 °F 90% 30.04 in 5.0 mi SE 13.8 mph 19.6 mph 0.00 in   Overcast
5:53 PM 63.0 °F 60.1 °F 90% 30.01 in 6.0 mi SE 9.2 mph 18.4 mph 0.00 in   Overcast
6:53 PM 63.0 °F 60.1 °F 90% 30.02 in 9.0 mi SE 9.2 mph - N/A   Overcast
7:06 PM 63.0 °F 60.1 °F 90% 30.04 in 10.0 mi SSE 9.2 mph - N/A   Overcast
7:53 PM 63.0 °F 59.0 °F 87% 30.04 in 10.0 mi SSE 6.9 mph - N/A   Overcast
8:01 PM 63.0 °F 59.0 °F 87% 30.06 in 10.0 mi SSE 10.4 mph 16.1 mph N/A   Overcast
8:53 PM 63.0 °F 57.9 °F 84% 30.04 in 10.0 mi SSE 13.8 mph 23.0 mph N/A   Overcast
9:11 PM 63.0 °F 57.0 °F 81% 30.05 in 10.0 mi SSE 16.1 mph 26.5 mph N/A   Overcast
9:53 PM 62.1 °F 57.0 °F 84% 30.02 in 10.0 mi SSE 11.5 mph 25.3 mph N/A   Overcast
10:53 PM 61.0 °F 55.9 °F 83% 30.01 in 10.0 mi SSE 11.5 mph 25.3 mph N/A   Overcast
11:08 PM 61.0 °F 57.0 °F 87% 30.04 in 10.0 mi SSE 9.2 mph - N/A   Overcast
11:53 PM 61.0 °F 57.0 °F 87% 29.99 in 10.0 mi SSE 8.1 mph 21.9 mph N/A   Overcast